Location: *
(51.5000°N, 0.1100°W)
Time: 17:40:21
(UTC+00:00)

Cosmos 1455 - Pass Details

Date: 25 May 2024
Orbit: 445 x 460 km, 82.5° (Epoch: 16 June)

Event Time Altitude Azimuth Distance (km) Brightness Sun altitude
Rises 00:51:12 0° 352° (N) 2,463 7.0 -16.5°
Reaches altitude 10° 00:53:18 10° 357° (N) 1,587 5.9 -16.5°
Maximum altitude 00:56:43 55° 77° (ENE) 547 2.4 -16.3°
Enters shadow 00:58:23 26° 145° (SE) 915 3.1 -16.3°
